Location: Bronnegerveen
(52.9548°N, 6.8388°E)
Time: 02:42:05
(UTC+00:00)

Okean 1 Rocket - Pass Details

Date: 15 June 2025
Orbit: 601 x 627 km, 82.5° (Epoch: 07 July)

Event Time Altitude Azimuth Distance (km) Brightness Sun altitude
Rises 00:27:09 0° 352° (N) 2,927 7.9 -12.8°
Reaches altitude 10° 00:29:27 10° 358° (N) 2,017 7.0 -12.8°
Maximum altitude 00:33:49 50° 74° (ENE) 805 3.8 -12.6°
Drops below altitude 10° 00:38:08 10° 150° (SSE) 2,000 5.3 -12.4°
Enters shadow 00:38:20 - 151° (SSE) 2,076 5.3 -12.4°
